Home   Weather   Riffa   Past weeks

Flag for Bahrain Past Weather in Riffa, Bahrain — Yesterday and Last 2 Weeks

Now
90 °F

Clear.


Feels Like: 95 °F
Forecast: 85 / 94 °F
Wind: 16 mph from Northwest

Location: Bahrain International Airport

Current Time: Sep 29, 2016 at 11:38:24 PM

Latest Report: Sep 29, 2016 at 11:00 PM


Visibility: 10 mi

Pressure: 29.71 "Hg

Humidity: 52%

Dew Point: 70 °F

Location of RiffaLocation

Past Weather in Riffa — Graph

°F

Riffa Temperature Yesterday

Maximum temperature yesterday: 99 °F (at 1:00 PM)
Minimum temperature yesterday: 84 °F (at 12:00 AM)
Average temperature yesterday: 90 °F

High & Low Weather Summary for the Past Weeks

 TemperatureHumidityPressure
High102 °F (Sep 17, 11:00 AM)89% (Sep 28, 2:00 AM)29.83 "Hg (Sep 28, 2:00 AM)
Low82 °F (Sep 27, 5:00 AM)27% (Sep 17, 10:00 AM)29.59 "Hg (Sep 18, 5:00 PM)
Average92 °F57%29.70 "Hg
* Reported Sep 14 10:00 PM — Sep 29 10:00 PM, Riffa, Weather by CustomWeather, © 2016

Note: Actual official high and low records may vary slightly from our data, if they occured in-between our weather recording intervals... More about our weather records

Advertising

Riffa Weather History for the Previous 24 Hours

Scroll right to see more
 ConditionsComfort  
Time TempWeatherWind HumidityBarometerVisibility
10:00 PM
Thu, Sep 29
90 °FClear.15 mph49%29.74 "Hg10 mi
9:00 PM90 °FClear.14 mph52%29.74 "Hg10 mi
8:00 PM90 °FClear.16 mph52%29.74 "Hg10 mi
7:00 PM90 °FClear.14 mph52%29.74 "Hg10 mi
6:00 PM91 °FClear.16 mph46%29.71 "Hg10 mi
5:00 PM93 °FSunny.16 mph44%29.71 "Hg10 mi
4:00 PM93 °FSunny.21 mph36%29.71 "Hg6 mi
3:00 PM95 °FSunny.18 mph34%29.71 "Hg6 mi
2:00 PM95 °FSunny.23 mph34%29.74 "Hg10 mi
1:00 PM97 °FSunny.21 mph42%29.74 "Hg10 mi
12:00 PM97 °FSunny.20 mph42%29.77 "Hg10 mi
11:00 AM95 °FSunny.20 mph50%29.77 "Hg10 mi
10:00 AM95 °FSunny.18 mph56%29.80 "Hg10 mi
9:00 AM95 °FSunny.15 mph53%29.80 "Hg10 mi
8:00 AM93 °FSunny.13 mph59%29.80 "Hg10 mi
7:00 AM90 °FSunny.10 mph71%29.77 "Hg5 mi
6:00 AM88 °FSunny.13 mph70%29.77 "Hg5 mi
5:00 AM88 °FClear.12 mph66%29.74 "Hg10 mi
4:00 AM88 °FClear.13 mph62%29.71 "Hg10 mi
3:00 AM88 °FClear.8 mph62%29.71 "Hg10 mi
2:00 AM90 °FPassing clouds.8 mph59%29.71 "HgN/A
1:00 AM88 °FClear.7 mph70%29.71 "Hg10 mi
12:00 AM88 °FClear.6 mph70%29.74 "Hg10 mi
11:00 PM
Wed, Sep 28
88 °FClear.8 mph70%29.74 "Hg10 mi
Weather by CustomWeather, © 2016

See weather overviewHow to use our weather pages